Weather History for Sioux Falls, SD

Change the Weather History Date:

Saturday, August 3, 2013

  Actual Average Record
Temperature  
Mean Temperature 63 °F 73 °F  
Max Temperature 77 °F 83 °F 105 °F (1930)
Min Temperature 49 °F 62 °F 39 °F (1894)
Degree Days  
Heating Degree Days 2 0  
Month to date heating degree days 3 0  
Since 1 June heating degree days 91 59  
Since 1 July heating degree days 22 8  
Cooling Degree Days 0 8  
Month to date cooling degree days 5 24  
Year to date cooling degree days 432 451  
Since 1 June cooling degree days 390 415  
Growing Degree Days 12 (Base 50)    
Moisture  
Dew Point 54 °F    
Average Humidity 76    
Maximum Humidity 100    
Minimum Humidity 37    
Precipitation  
Precipitation 0.00 in 0.11 in 1.89 in (2004)
Month to date precipitation 0.21 0.32  
Year to date precipitation 17.40 16.66  
Snow  
Snow 0.00 in 0.00 in 0.00 in ()
Month to date snowfall 0.0 0.0  
Since 1 June snowfall 0.0 0.0  
Since 1 July snowfall 0.0 0.0  
Snow Depth 0.00 in    
Sea Level Pressure  
Sea Level Pressure 30.17 in    
Wind  
Wind Speed 4 mph (ENE)    
Max Wind Speed 15 mph    
Max Gust Speed 18 mph    
Visibility 8 miles    
Events      
T = Trace of Precipitation, MM = Missing Value Source: NWS Daily Summary

Daily Weather History Graph

Daily Weather History Graph

Search for Another Location

Airport:

Trip Planner

Search our weather history database for the weather conditions in past years. The results will help you decide how hot, cold, wet, or windy it might be!

Date:

Astronomy

Aug. 03, 2013 Rise Set
Actual Time 6:18 AM CDT 8:46 PM CDT
Civil Twilight 5:46 AM CDT 9:19 PM CDT
Nautical Twilight 5:06 AM CDT 9:59 PM CDT
Astronomical Twilight 4:20 AM CDT 10:44 PM CDT
Moon 3:27 AM CDT (8/3) 6:30 PM CDT (8/3)
Length of Visible Light 15h 32m
Length of Day
14h 28m
Waning Crescent, 9% of the Moon is Illuminated
Aug 3
Waning Crescent
Aug 6
New
Aug 14
First Quarter
Aug 20
Full
Aug 28
Last Quarter

Hourly Weather History & Observations

Time (CDT) Temp. Dew Point Humidity Pressure Visibility Wind Dir Wind Speed Gust Speed Precip Events Conditions
12:56 AM 55.9 °F 55.0 °F 97% 30.10 in 10.0 mi Calm Calm - N/A   Clear
1:56 AM 54.0 °F 54.0 °F 100% 30.12 in 10.0 mi Calm Calm - N/A   Clear
2:56 AM 54.0 °F 54.0 °F 100% 30.12 in 10.0 mi Calm Calm - N/A   Clear
3:56 AM 52.0 °F 52.0 °F 100% 30.12 in 1.2 mi Calm Calm - N/A   Clear
4:05 AM 53.6 °F 53.6 °F 100% 30.12 in 0.8 mi Calm Calm - N/A   Clear
4:20 AM 53.6 °F 53.6 °F 100% 30.12 in 1.2 mi Calm Calm - N/A   Clear
4:27 AM 53.6 °F 53.6 °F 100% 30.12 in 3.0 mi Calm Calm - N/A   Clear
4:56 AM 51.1 °F 51.1 °F 100% 30.13 in 4.0 mi Calm Calm - N/A   Partly Cloudy
5:11 AM 51.8 °F 51.8 °F 100% 30.13 in 4.0 mi Calm Calm - N/A   Partly Cloudy
5:56 AM 52.0 °F 51.1 °F 97% 30.14 in 6.0 mi Calm Calm - N/A   Partly Cloudy
6:56 AM 52.0 °F 52.0 °F 100% 30.17 in 8.0 mi Calm Calm - N/A   Scattered Clouds
7:56 AM 55.9 °F 53.1 °F 90% 30.18 in 10.0 mi Calm Calm - N/A   Mostly Cloudy
8:56 AM 61.0 °F 55.0 °F 81% 30.19 in 10.0 mi Calm Calm - N/A   Mostly Cloudy
9:56 AM 66.0 °F 57.0 °F 73% 30.19 in 10.0 mi NNE 4.6 mph - N/A   Mostly Cloudy
10:56 AM 69.1 °F 55.0 °F 61% 30.19 in 10.0 mi NE 3.5 mph - N/A   Overcast
11:56 AM 69.1 °F 55.0 °F 61% 30.21 in 10.0 mi East 3.5 mph - N/A   Mostly Cloudy
12:56 PM 72.0 °F 54.0 °F 53% 30.20 in 10.0 mi East 6.9 mph - N/A   Scattered Clouds
1:56 PM 73.9 °F 51.1 °F 45% 30.19 in 10.0 mi East 10.4 mph 16.1 mph N/A   Scattered Clouds
2:56 PM 75.0 °F 53.1 °F 46% 30.19 in 10.0 mi ENE 13.8 mph 17.3 mph N/A   Scattered Clouds
3:56 PM 75.9 °F 53.1 °F 45% 30.19 in 10.0 mi NE 11.5 mph - N/A   Scattered Clouds
4:56 PM 75.9 °F 53.1 °F 45% 30.18 in 10.0 mi NE 9.2 mph - N/A   Scattered Clouds
5:56 PM 75.0 °F 52.0 °F 44% 30.17 in 10.0 mi ENE 5.8 mph - N/A   Scattered Clouds
6:56 PM 73.9 °F 53.1 °F 48% 30.18 in 10.0 mi ENE 9.2 mph - N/A   Scattered Clouds
7:56 PM 71.1 °F 53.1 °F 53% 30.18 in 10.0 mi NE 9.2 mph - N/A   Partly Cloudy
8:56 PM 64.0 °F 55.0 °F 73% 30.18 in 10.0 mi NE 5.8 mph - N/A   Partly Cloudy
9:56 PM 63.0 °F 55.0 °F 75% 30.21 in 10.0 mi Calm Calm - N/A   Scattered Clouds
10:56 PM 60.1 °F 55.0 °F 83% 30.21 in 10.0 mi Calm Calm - N/A   Scattered Clouds
11:56 PM 59.0 °F 55.0 °F 87% 30.22 in 10.0 mi Calm Calm - N/A   Scattered Clouds